Regional Weather Roundup
Issued by NWS

Home | Current Version | Previous Version | Text Only | Print | Product List | Glossary On
Versions: 1 2 3 4 5 6 7 8 9 10 11 12 13 14 15 16 17 18 19 20 21 22 23 24 25 26 27 28 29 30 31 32 33 34 35 36 37 38 39 40 41 42 43 44 45 46 47 48 49 50
000
ASUS44 KEWX 291910
RWRTX
SOUTH TEXAS REGIONAL WEATHER ROUNDUP
NATIONAL WEATHER SERVICE AUSTIN/SAN ANTONIO TX
200 PM CDT SUN MAR 29 2015

NOTE: "FAIR" INDICATED FEW OR NO CLOUDS BELOW 12,000 FEET WITH NO
SIGNIFICANT WEATHER AND/OR OBSTRUCTIONS TO VISIBILITY.

* - THESE STATIONS ARE NOT NWS OR FAA STATIONS...AND ARE NOT SUBJECT
    TO NWS AND FAA QUALITY CONTROL.

TXZ171-172-183>190-292000-
TEXAS HILL COUNTRY AND EDWARDS PLATEAU

CITY           SKY/WX    TMP DP  RH WIND       PRES   REMARKS
JUNCTION       SUNNY     87  47  24 S16G24    30.03F
*LLANO         SUNNY     84  54  34 S16G22    30.06F
BURNET         SUNNY     81  54  39 S14G24    30.08F
*HORSESHOE BAY SUNNY     83  52  34 S12G23    30.07F
*KERRVILLE     SUNNY     79  56  45 S17       30.09F
*FREDERICKSBRG SUNNY     78  52  39 S15G22    30.08F
*ROCKSPRINGS   SUNNY     81  54  39 S12G18    30.11F
*BOERNE STAGE  SUNNY     77  52  41 S13G20    30.11F
*CASTROVILLE   SUNNY     79  57  47 SE13G18   30.10F
HONDO          SUNNY     79  58  48 S13G23    30.10F
*UVALDE        SUNNY     78  59  51 S10G18    30.08F
DEL RIO        SUNNY     80  55  42 SE10G16   30.03F
LAUGHLIN AFB   SUNNY     80  58  46 SE9       30.03F
CARRIZO SPRGS  SUNNY     82  57  42 SE12G17   30.05F
$$

TXZ173-191>194-202-209-217>225-228-292000-
CENTRAL AND SOUTH CENTRAL TEXAS

CITY           SKY/WX    TMP DP  RH WIND       PRES   REMARKS
GEORGETOWN     SUNNY     81  55  41 S24G30    30.06F
AUSTIN/BERGSTM SUNNY     79  58  48 S23G29    30.08F
AUSTIN/MABRY   SUNNY     82  57  42 S8G18     30.09F
*AUSTIN/EXEC     N/A     79  57  47 S20G25    30.09F
*LAGO VISTA    SUNNY     81  51  35 SW15G24   30.09F
SAN MARCOS     SUNNY     79  55  44 S21G30    30.10F
NEW BRAUNFELS  SUNNY     82  56  40 S21G31    30.09F
RANDOLPH AFB   MOSUNNY   78  58  49 S12G22    30.10F
PT SAN ANTONIO SUNNY     78  61  55 S15       30.08F
SAN ANTONIO    SUNNY     80  57  45 S14       30.10F
STINSON FIELD  LGT RAIN  79  59  50 S12G17    30.08F
*PLEASANTON    SUNNY     81  58  46 SE14G20   30.10F
*LA GRANGE     SUNNY     80  60  49 S21       30.09F
*GIDDINGS      SUNNY     78  57  47 S14G22    30.14F
*GONZALES      SUNNY     81  60  48 S18G24    30.10F
$$

TXZ163>164-176>182-195>201-210>213-226-227-235-292000-
SOUTHEAST TEXAS

CITY           SKY/WX    TMP DP  RH WIND       PRES   REMARKS
COLLEGE STN    SUNNY     80  57  45 S23G30    30.09F
*BRYAN         SUNNY     79  57  46 S17G28    30.11F
*CALDWELL      SUNNY     79  54  41 S15G23    30.12F
*CROCKETT      SUNNY     82  61  47 S18G25    30.11F
*BRENHAM       SUNNY     80  58  45 S17G25    30.12F
HUNTSVILLE     SUNNY     78  58  49 S14G23    30.10F
CONROE         SUNNY     79  56  45 SW17G25   30.14F
HOUSTON BUSH   MOSUNNY   79  60  52 S14G23    30.15F
HOUSTON HOBBY  MOSUNNY   78  61  55 S17G28    30.16F
*HOUSTON SW AP PTSUNNY   78  64  61 S15G23    30.17F
PEARLAND       MOSUNNY   79  61  53 S15G22    30.18F
HOUSTON HOOKS  MOSUNNY   81  60  48 S15G21    30.14F
ELLINGTON FLD  PTSUNNY   79  64  61 S16G23    30.18F
SUGAR LAND     MOSUNNY   80  62  54 S17G26    30.16S
*HOUSTON EXEC  MOSUNNY   81  61  50 S17G25    30.16S
*CLEVELAND MUN PTSUNNY   79  63  57 S16G23    30.15F
*WHARTON       SUNNY     79  60  52 S23G30    30.16F
*COLUMBUS      FAIR      79  59  50 S21G26    30.12F
$$

TXZ214>216-236>238-292000-
THE UPPER TEXAS COAST

CITY           SKY/WX    TMP DP  RH WIND       PRES   REMARKS
*ORANGE        MOSUNNY   77  59  53 S18G25    30.21F
PORT ARTHUR    PTSUNNY   78  62  57 S18G25    30.19F
GALVESTON      SUNNY     74  67  78 S13       30.20F
ANGLETON       PTSUNNY   76  63  64 S23       30.18F
*BAY CITY      CLOUDY    76  65  67 S16G23    30.18F
PALACIOS       SUNNY     75  65  70 S17       30.17F
$$

TXZ229>234-239>247-292000-
TEXAS COASTAL BEND AND RIO GRANDE PLAINS

CITY           SKY/WX    TMP DP  RH WIND       PRES   REMARKS
VICTORIA       SUNNY     79  60  52 S24G33    30.14F
*BEEVILLE      SUNNY     81  62  52 S16G22    30.11F
ROCKPORT       SUNNY     78  63  59 S16G28    30.13F
*PORT ARANSAS  SUNNY     73  65  76 S14G21    30.14F
*PORT LAVACA   MOSUNNY   78  63  60 S21G28    30.15F
*INGLESIDE     SUNNY     79  65  62 S25       30.13F
CORPUS CHRISTI MOSUNNY   78  65  63 SE25G36   30.11F
CORPUS NAS     SUNNY     77  65  66 S26G36    30.13F
*ROBSTOWN      MOSUNNY   81  65  58 MISG      30.11F
ALICE          SUNNY     86  56  35 S21G28    30.09F
KINGSVILLE NAS SUNNY     85  61  44 S16G28    30.10F
COTULLA        SUNNY     83  58  42 SE13G20   30.07F
*FAITH RANCH   SUNNY     82  55  39 S10       30.06F
LAREDO         SUNNY     85  60  42 SE14      30.07F
$$

TXZ248>255-292000-
DEEP SOUTH TEXAS

CITY           SKY/WX    TMP DP  RH WIND       PRES   REMARKS
BROWNSVILLE    PTSUNNY   80  65  59 S29       30.14F
PORT ISABEL    PTSUNNY   80  65  59 S22G32    30.12F
*SOUTH PADRE   SUNNY     73  66  78 S13       30.15F
HARLINGEN      SUNNY     82  64  54 S23G33    30.11F
*HEBBRONVILLE  NOT AVBL
MCALLEN        SUNNY     86  62  44 SE20G29   30.10F
*WESLACO       SUNNY     81  59  46 S23G31    30.10F
FALFURRIAS     SUNNY     83  59  44 S14       30.09F
EDINBURG       SUNNY     84  58  40 S21G28    30.10F
*ZAPATA        SUNNY     83  58  42 S10G20    30.06F
$$

TXZ213>215-236>238-242>244-246-247-251-254-255-292000-
CMAN STATIONS

STATION/POSITION TIME  TEMP    WIND        PRES    WAVE
                       AIR SEA DIR/SP/G            HT/PER
                 (UTC) (F)     (DEG/KT/KT) (MB)    (FT/S)
$$

GMZ080-GMZ150>470-292000-
OFFSHORE BUOY REPORTS

STATION/POSITION TIME  TEMP    WIND        PRES    WAVE
                       AIR SEA DIR/SP/G            HT/PER
                 (UTC) (F)     (DEG/KT/KT) (MB)    (FT/S)
$$



USA.gov is the U.S. government's official web portal to all federal, state and local government web resources and services.